Location: Holcomb Observatory
(44.4922°N, 73.1654°W)
Time: 09:12:55
(UTC-04:00)

Cosmos 2360 Rocket - Visible Passes

Search period start: 27 March 2015 00:00
Search period end: 06 April 2015 00:00
Orbit: 834 x 845 km, 71.0° (Epoch: 26 March)

Date Brightness Start Highest point End Pass type
(mag) Time Alt. Az. Time Alt. Az. Time Alt. Az.
27 Mar 2.3 19:42:24 10° NNW 19:48:07 88° WSW 19:53:47 10° SSE visible
27 Mar 4.9 21:28:51 10° WNW 21:31:23 13° W 21:33:34 10° WSW visible
28 Mar 4.9 21:12:57 10° WNW 21:15:48 14° W 21:18:21 10° SW visible
29 Mar 4.9 20:57:05 10° WNW 21:00:13 15° W 21:03:05 10° SW visible
30 Mar 4.9 20:41:16 10° WNW 20:44:39 16° W 20:47:46 10° SW visible
31 Mar 4.9 20:25:28 10° WNW 20:29:04 17° W 20:32:25 10° SW visible
01 Apr 4.9 20:09:41 10° WNW 20:13:29 18° W 20:17:04 10° SW visible
02 Apr 4.9 19:53:55 10° NW 19:57:54 19° W 20:01:41 10° SW visible
